TimeEDT,TemperatureF,Dew PointF,Humidity,Sea Level PressureIn,VisibilityMPH,Wind Direction,Wind SpeedMPH,Gust SpeedMPH,PrecipitationIn,Events,Conditions,WindDirDegrees,DateUTC
12:51 AM,77.0,75.0,94,29.91,10.0,SSE,8.1,-,N/A,,Clear,160,2012-10-02 04:51:00
1:51 AM,77.0,73.0,88,29.91,10.0,South,9.2,-,N/A,,Partly Cloudy,170,2012-10-02 05:51:00
2:51 AM,77.0,73.9,90,29.90,10.0,South,8.1,-,0.04,,Scattered Clouds,170,2012-10-02 06:51:00
3:51 AM,75.9,73.0,91,29.90,9.0,South,10.4,-,0.00,,Mostly Cloudy,190,2012-10-02 07:51:00
4:51 AM,77.0,73.9,90,29.90,10.0,South,15.0,24.2,0.00,,Mostly Cloudy,170,2012-10-02 08:51:00
5:51 AM,77.0,73.9,90,29.89,10.0,South,9.2,-,N/A,,Clear,170,2012-10-02 09:51:00
6:51 AM,79.0,75.0,88,29.91,10.0,South,10.4,-,N/A,,Partly Cloudy,190,2012-10-02 10:51:00
7:51 AM,78.1,75.0,90,29.94,8.0,South,13.8,-,0.01,Rain,Light Rain,190,2012-10-02 11:51:00
8:45 AM,77.0,73.4,89,29.95,5.0,South,11.5,-,0.07,,Mostly Cloudy,170,2012-10-02 12:45:00
8:51 AM,77.0,75.0,94,29.94,4.0,South,9.2,-,0.07,,Mostly Cloudy,170,2012-10-02 12:51:00
9:23 AM,78.8,75.2,89,29.95,7.0,South,12.7,-,0.00,,Mostly Cloudy,170,2012-10-02 13:23:00
9:51 AM,78.1,75.0,90,29.95,9.0,South,9.2,-,0.00,Rain,Light Rain,180,2012-10-02 13:51:00
10:51 AM,80.1,75.9,87,29.96,10.0,South,11.5,-,0.00,,Scattered Clouds,180,2012-10-02 14:51:00
11:51 AM,78.1,75.0,90,29.96,4.0,SSW,12.7,21.9,0.01,Rain,Rain,200,2012-10-02 15:51:00
12:19 PM,78.8,75.2,89,29.95,2.5,South,10.4,-,0.06,Rain,Light Rain,190,2012-10-02 16:19:00
12:36 PM,77.0,73.4,89,29.96,1.5,SSW,15.0,27.6,0.13,Rain,Heavy Rain,200,2012-10-02 16:36:00
12:42 PM,78.8,75.2,89,29.96,3.0,South,12.7,19.6,0.14,Rain,Light Rain,180,2012-10-02 16:42:00
12:51 PM,78.1,75.0,90,29.96,6.0,South,15.0,20.7,0.14,Rain,Light Rain,180,2012-10-02 16:51:00
1:16 PM,78.8,75.2,89,29.96,1.5,SSW,18.4,32.2,0.04,Rain,Heavy Rain,210,2012-10-02 17:16:00
1:23 PM,75.2,73.4,94,29.96,1.0,SSW,18.4,32.2,0.13,Rain,Rain,210,2012-10-02 17:23:00
1:30 PM,75.2,73.4,94,29.95,2.0,SSW,13.8,28.8,0.14,Rain,Rain,210,2012-10-02 17:30:00
1:49 PM,75.2,73.4,94,29.94,3.0,SSW,11.5,21.9,0.17,Rain,Rain,210,2012-10-02 17:49:00
1:51 PM,75.9,73.0,91,29.94,3.0,SSW,12.7,21.9,0.17,Rain,Rain,210,2012-10-02 17:51:00
2:46 PM,78.8,75.2,89,29.94,5.0,SSW,8.1,-,0.03,Rain,Light Rain,210,2012-10-02 18:46:00
2:51 PM,78.1,75.0,90,29.94,4.0,SSW,9.2,-,0.03,Rain,Light Rain,210,2012-10-02 18:51:00
3:11 PM,78.8,75.2,89,29.94,4.0,SSW,9.2,-,0.02,Rain,Light Rain,210,2012-10-02 19:11:00
3:51 PM,79.0,75.9,90,29.94,4.0,SSW,8.1,-,0.05,Rain,Light Rain,200,2012-10-02 19:51:00
4:51 PM,77.0,73.9,90,29.94,8.0,SSW,8.1,-,0.00,Rain,Light Rain,200,2012-10-02 20:51:00
5:51 PM,78.1,75.0,90,29.96,9.0,SSW,10.4,-,0.00,Rain,Light Rain,200,2012-10-02 21:51:00
6:51 PM,79.0,75.0,88,29.97,6.0,SSW,10.4,-,0.00,Rain,Light Rain,210,2012-10-02 22:51:00
7:51 PM,78.1,75.0,90,29.98,7.0,SW,8.1,-,0.00,,Clear,230,2012-10-02 23:51:00
8:51 PM,78.1,75.0,90,29.99,8.0,SSW,8.1,-,N/A,,Partly Cloudy,210,2012-10-03 00:51:00
9:51 PM,78.1,75.0,90,30.01,6.0,SSW,6.9,-,N/A,,Partly Cloudy,210,2012-10-03 01:51:00
10:51 PM,78.1,73.9,87,30.02,7.0,SW,6.9,-,0.00,,Clear,220,2012-10-03 02:51:00
11:51 PM,78.1,75.0,90,30.03,8.0,SW,9.2,-,N/A,,Clear,220,2012-10-03 03:51:00